Albany, GA

8:31 PM EST on December 06, 2019 (GMT -0500)
Southwest Georgia Regional

Weather History for KABY - November, 2019

Change the Weather History Date:

Tuesday, November 19, 2019

  Actual Average Record
Temperature  
Mean Temperature 54 °F 58 °F  
Max Temperature 68 °F 70 °F 86 °F (1931)
Min Temperature 40 °F 45 °F 19 °F (2014)
Degree Days  
Heating Degree Days 11    
Month to date heating degree days 178  
Since 1 July heating degree days 186  
Cooling Degree Days 0    
Month to date cooling degree days 14  
Year to date cooling degree days 3223  
Growing Degree Days 4 (Base 50)    
Moisture  
Dew Point 40 °F    
Average Humidity 67    
Maximum Humidity 86    
Minimum Humidity 33    
Precipitation  
Precipitation 0.00 in 0.10 in 0.68 in (2003)
Month to date precipitation 1.03 1.70  
Year to date precipitation 39.65 43.33  
Sea Level Pressure  
Sea Level Pressure 29.96 in    
Wind  
Wind Speed 3 mph ()    
Max Wind Speed 13 mph    
Max Gust Speed 17 mph    
Visibility 10.0 miles    
Events      
T = Trace of Precipitation, MM = Missing Value Source: Averaged Metar Reports

Daily Weather History Graph

Daily Weather History Graph

Search for Another Location

Airport or City:

Astronomy

Nov. 19, 2019 Rise Set
Actual Time 7:07 AM EST 5:36 PM EST
Civil Twilight 6:41 AM EST 6:01 PM EST
Nautical Twilight 6:12 AM EST 6:31 PM EST
Astronomical Twilight 5:43 AM EST 7:00 PM EST
Moon No Moon Rise 1:20 PM EST (11/19)
Length of Visible Light 11h 20m
Length of Day
10h 28m
Waning Gibbous, 52% of the Moon is Illuminated
Nov 19
Waning Gibbous
Nov 19
Last Quarter
Nov 26
New
Dec 4
First Quarter
Dec 12
Full

Hourly Weather History & Observations

Time (EST) Temp. Windchill Dew Point Humidity Pressure Visibility Wind Dir Wind Speed Gust Speed Precip Events Conditions
12:53 AM 46.0 °F - 39.9 °F 79% 29.88 in 10.0 mi Calm Calm - N/A   Clear
1:53 AM 46.0 °F - 39.9 °F 79% 29.88 in 10.0 mi Calm Calm - N/A   Clear
2:53 AM 43.0 °F - 39.0 °F 86% 29.88 in 10.0 mi Calm Calm - N/A   Clear
3:53 AM 43.0 °F 40.3 °F 39.0 °F 86% 29.90 in 10.0 mi West 4.6 mph - N/A   Clear
5:53 AM 42.1 °F - 37.9 °F 85% 29.92 in 10.0 mi Calm Calm - N/A   Clear
6:53 AM 41.0 °F - 37.0 °F 86% 29.94 in 10.0 mi Calm Calm - N/A   Clear
7:53 AM 45.0 °F 42.6 °F 39.9 °F 82% 29.96 in 9.0 mi WNW 4.6 mph - N/A   Mostly Cloudy
8:53 AM 48.0 °F - 41.0 °F 77% 29.98 in 10.0 mi West 8.1 mph - N/A   Overcast
9:53 AM 53.1 °F - 42.1 °F 66% 29.99 in 10.0 mi West 4.6 mph - N/A   Mostly Cloudy
10:53 AM 57.9 °F - 39.0 °F 49% 29.99 in 10.0 mi WNW 5.8 mph - N/A   Scattered Clouds
11:53 AM 61.0 °F - 37.9 °F 42% 29.98 in 10.0 mi WNW 6.9 mph - N/A   Clear
12:53 PM 62.1 °F - 37.0 °F 39% 29.96 in 10.0 mi Variable 6.9 mph - N/A   Clear
1:53 PM 66.0 °F - 37.9 °F 36% 29.94 in 10.0 mi WSW 9.2 mph - N/A   Clear
2:53 PM 66.9 °F - 39.0 °F 36% 29.92 in 10.0 mi WSW 8.1 mph - N/A   Clear
3:53 PM 66.9 °F - 37.0 °F 33% 29.92 in 10.0 mi West 9.2 mph - N/A   Clear
4:53 PM 66.0 °F - 39.0 °F 37% 29.94 in 10.0 mi WSW 6.9 mph - N/A   Clear
6:53 PM 53.1 °F - 44.1 °F 71% 29.98 in 10.0 mi WSW 3.5 mph - N/A   Clear
7:53 PM 51.1 °F - 43.0 °F 74% 29.99 in 10.0 mi Calm Calm - N/A   Clear
8:53 PM 48.0 °F - 42.1 °F 80% 30.01 in 10.0 mi Calm Calm - N/A   Clear
9:53 PM 48.0 °F - 42.1 °F 80% 30.02 in 10.0 mi Calm Calm - N/A   Clear
10:53 PM 45.0 °F - 41.0 °F 86% 30.03 in 10.0 mi Calm Calm - N/A   Clear
11:53 PM 46.0 °F - 41.0 °F 83% 30.03 in 10.0 mi Calm Calm - N/A   Clear